Terug naar catalogus

CZ-6A DEB

ActiefPO
NORAD 61297·DEBRIS·🇨🇳 China

Gelanceerd Aug 6, 2024 vanaf Taiyuan Satellite Launch Center

Loading…

Volgende Passages (komende 24 uur)

TLE

VersSource: Space-Track

Epoch: Sep 14, 2026, 23:26 UTC

1 61297U 24140TJ  26257.97706671  .00002182  00000-0  96131-3 0  9997
2 61297  89.0396 268.5211 0056897 247.3939 112.1227 14.22250041106070

Volg CZ-6A DEB in realtime met AllMySat

Download on the App Store